www.pogodaiklimat.ru

Погода и климат >> Архив погоды >> Аргентина >> San Fernando del Valle de Catamarca


ПОГОДА в San Fernando del Valle de Catamarca

  • Прогноз погоды в San Fernando del Valle de Catamarca
  • Монитор погоды в San Fernando del Valle de Catamarca
  • Климат города

АРХИВ ПОГОДЫ в San Fernando del Valle de Catamarca

Время (UTC), дата Ветер
(напр.,м/с)
 
Видим.   Явления Облачность Т
(С)
Тd
(С)
f
(%)
Тe
(С)
Тes
(С)
Комфортность P
(гПа)
Po
(гПа)
Тmin
(С)
Tmax
(С)
R
(мм)
R24
(мм)
S
(см)
03 13.11 С 10 20 км ясно +27.1 +14.3 45 +29 +29 жарко 1002.8 953.3
06 13.11 С 10 20 км ясно +28.5 +9.1 30 +28 +28 жарко 1001.0 951.8
09 13.11 С 7 20 км ясно +26.7 +8.8 32 +27 +27 жарко 1002.9 953.4
12 13.11 С 10 20 км ясно +31.3 +9.5 26 +31 +31 жарко 1004.2 954.6 +25.4 +31.7
15 13.11 С 13 20 км 1/1 1500 м
[Sc]
+35.7 +10.2 21 +35 +35 очень
жарко
1003.3 953.8
18 13.11 С 15 8000 м пыльный позёмок 1/1 1500 м
[Sc]
+35.9 +9.5 20 +35 +35 очень
жарко
1000.6 951.4
21 13.11 С 15 10 км пыльный позёмок 1/1 1500 м
[Sc]
+35.7 +9.7 21 +35 +35 очень
жарко
998.6 949.3
00 14.11 С 11 10 км пыльный позёмок ясно +32.3 +9.1 24 +31 +31 жарко 1000.3 951.0 +30.4 +37.6
03 14.11 С 9 15 км пыльный позёмок ясно +30.7 +9.0 26 +30 +30 жарко 1001.3 952.2
06 14.11 С 8 15 км пыльный позёмок ясно +28.6 +9.2 30 +29 +29 жарко 999.7 950.5
09 14.11 С 8 20 км ясно +25.3 +9.1 36 +26 +26 жарко 1000.4 950.9
12 14.11 С 9 20 км ясно +30.3 +9.9 28 +30 +31 жарко 1000.9 951.4 +25.4 +32.5
15 14.11 С 8 20 км ясно +37.1 +12.1 22 +37 +41 очень
жарко
998.6 949.7
18 14.11 С 7 20 км 1/1 1500 м
[Sc]
+39.7 +11.0 18 +39 +43 очень
жарко
995.8 947.0
21 14.11 С 11 20 км ясно +37.5 +10.8 20 +36 +36 очень
жарко
995.0 945.8
00 15.11 С 11 20 км ясно +33.1 +11.0 26 +33 +33 жарко 996.4 947.3 +30.3 +41.0
03 15.11 СВ 9 20 км ясно +29.9 +11.7 33 +31 +31 жарко 996.6 947.8
06 15.11 СВ 11 20 км ясно +29.8 +13.2 36 +31 +31 жарко 993.5 945.0
09 15.11 С 5 20 км ясно +26.2 +13.3 45 +28 +28 жарко 994.1 945.1
12 15.11 З 3 15 км мгла ясно +33.2 +14.2 32 +35 +40 душно 995.0 946.2 +24.9 +33.4
15 15.11 В 3 15 км мгла ясно +39.8 +11.5 19 +39 +55 опасность
солнечного
удара
993.5 945.0
18 15.11 штиль 0 20 км 1/0
[Ac cast]
+42.7 +10.6 15 +41 +65 опасность
перегрева
990.8 942.6
21 15.11 В 6 20 км 3/0
[Ac und]
+42.9 +8.7 13 +41 +42 опасность
перегрева
990.5 942.1
00 16.11 ЮЗ 7 2000 м зарница {метель} 10/10 900 м
[Cb cap]
+32.1 +11.3 28 +32 +32 жарко 999.5 950.4 +32.1 +45.2
03 16.11 Ю 5 8000 м пыль 4/0
[Cs]
+25.1 +10.3 39 +26 +26 жарко 1007.4 957.8
06 16.11 Ю 5 10 км пыль 10/5 1500 м
[Sc Ac As]
+23.3 +3.3 27 +23 +23 комфорт 1010.6 961.0
09 16.11 Ю 3 12 км 9/4 1500 м
[Sc Ac As]
+21.1 +2.3 29 +21 +21 комфорт 1011.9 962.1
12 16.11 ЮЗ 5 10 км пыль 9/0
[Ac As]
+21.3 +5.0 34 +22 +23 комфорт 1014.7 963.8 +19.6 +32.5
15 16.11 СЗ 4 10 км пыль ясно +27.4 +0.4 17 +25 +40 комфорт 1011.4 960.7
18 16.11 С 5 10 км пыль ясно +29.7 +6.1 23 +28 +38 жарко 1007.5 957.0
21 16.11 С 8 10 км пыль ясно +29.9 +5.3 21 +28 +29 жарко 1004.2 953.7
00 17.11 С 10 10 км пыль ясно +24.3 +4.8 28 +24 +24 комфорт 1005.5 954.5 +21.3 +31.0
03 17.11 С 10 10 км пыль ясно +22.9 +5.9 33 +23 +23 комфорт 1005.1 954.5
06 17.11 С 7 10 км пыль ясно +21.1 +5.3 36 +22 +22 комфорт 1002.8 952.4
09 17.11 С 10 13 км пыль ясно +20.7 +4.1 34 +21 +21 комфорт 1002.3 951.8
12 17.11 С 8 10 км пыль ясно +23.7 +9.2 40 +25 +26 комфорт 1003.6 952.9 +20.0 +24.8
15 17.11 СЗ 2 10 км пыль ясно +30.1 +11.6 32 +31 +50 жарко 1001.8 951.6
18 17.11 ЮЗ 5 10 км пыль 1/1 1500 м
[Cu med, cong]
+34.5 +10.3 23 +34 +42 очень
жарко
999.5 949.6
21 17.11 ЮЗ 6 10 км пыль 1/1 1500 м
[Sc]
+34.3 +10.4 23 +33 +35 жарко 997.6 947.8
00 18.11 С 5 10 км пыль 4/4 1500 м
[Sc]
+29.5 +5.8 22 +28 +28 жарко 1001.3 951.0 +23.6 +35.6
03 18.11 В 12 10 км пыльный позёмок 3/3 1500 м
[Sc]
+26.1 +6.2 28 +26 +26 жарко 1004.3 954.2
06 18.11 СВ 6 10 км пыльный позёмок 5/5 1500 м
[Sc]
+22.5 +1.5 25 +22 +22 комфорт 1006.4 956.3
09 18.11 ЮЗ 5 10 км пыль 10/10 1500 м
[Sc]
+19.7 -1.1 25 +20 +20 1009.7 959.2
12 18.11 З 2 15 км мгла 10/10 1500 м
[Sc]
+19.0 +2.1 32 +20 +20 1013.6 962.4 +18.0 +29.6
15 18.11 С 10 15 км мгла 10/10 1350 м
[Sc]
+21.3 +0.6 25 +21 +21 комфорт 1013.3 962.1
18 18.11 С 8 15 км пыльный позёмок ясно +24.5 +3.3 25 +24 +27 комфорт 1010.2 959.0
21 18.11 С 10 15 км мгла 4/0
[Cs]
+24.9 +2.1 23 +24 +24 комфорт 1007.3 956.1
00 19.11 С 9 15 км мгла ясно +20.5 +6.5 40 +21 +21 комфорт 1008.7 957.0 +19.0 +26.6
03 19.11 С 10 15 км мгла ясно +19.1 +6.5 44 +19 +19 1008.9 957.3
06 19.11 С 11 20 км ясно +18.9 +7.3 47 +18 +18 1006.6 955.4
09 19.11 С 7 20 км ясно +17.7 +6.6 48 +17 +17 1006.5 955.2
12 19.11 С 5 15 км мгла ясно +23.3 +4.9 30 +23 +26 комфорт 1007.7 956.4 +17.6 +23.5
15 19.11 Ю 3 15 км мгла ясно +31.3 +2.0 15 +29 +45 жарко 1006.0 955.4
18 19.11 Ю 2 20 км 1/1 2000 м
[Sc diur, vesp Ci fib]
+34.9 -2.3 9 +31 +48 жарко 1002.6 952.4
21 19.11 С 9 20 км ясно +33.7 +0.7 12 +30 +31 жарко 1000.0 949.8
00 20.11 С 10 15 км дым 1/1 1500 м
[Sc diur, vesp]
+28.5 +1.7 18 +26 +26 жарко 1000.1 949.8 +22.4 +37.6

 

Местоположение метеостанции San Fernando del Valle de Catamarca (Аргентина): широта -28.60 долгота -65.76 высота над уровнем моря 454 м.

В архиве по умолчанию представлена погода в San Fernando del Valle de Catamarca за последнюю неделю. Архивные данные за месяц целиком и за предыдущие месяцы, начиная с января 2011 года, Вы можете получить, выбрав интересующий диапазон дат из раскрывающегося списка и нажав кнопку "Ввод!".

Внимание! Время в таблицах - всемирное. Для получения местного времени необходимо прибавить поправку, которая в San Fernando del Valle de Catamarca равна -3 ч.

Смотрите также архив погоды в соседних городах и на ближайших метеорологических станциях:

Погода в La Rioja (Аргентина) (134 км)
Погода в Santiago del Estero (Аргентина) (171 км)
Погода в Chamical (Аргентина) (202 км)
Погода в San Miguel de Tucuman (Аргентина) (206 км)
Погода в Villa de Maria del Rio Seco (Аргентина) (248 км)
Погода в Cordoba (Аргентина) (336 км)
Погода в Villa Dolores (Аргентина) (377 км)
Погода в Pilar (Аргентина) (385 км)
Погода в Ceres (Аргентина) (396 км)
Погода в San Juan (Аргентина) (403 км)

Пояснения к столбцам:

Ветер - указаны скорость ветра в м/с - средняя за 10 мин, порывы в срок и между сроками (в фигурных скобках) и направление, откуда дует ветер: С - северный, СВ - северо-восточный, В - восточный, ЮВ - юго-восточный, Ю - южный, ЮЗ - юго-западный, З - западный, СЗ - северо-западный.
Видимость - горизонтальная дальность видимости в метрах или километрах. При видимости от 1 до 10 км при отсутствии осадков обычно наблюдается дымка, при ухудшении видимости до 1 км и менее - туман. В сухую погоду видимость может ухудшаться дымом, пылью или мглою.
Явления - указаны атмосферные явления, наблюдавшиеся в срок или в последний час перед сроком; фигурными скобками обозначены явления, наблюдавшиеся между сроками (за 1-3 часа до срока); квадратными скобками обозначены град или гололедные отложения с указанием их диаметра в мм.
Облачность - указаны через наклонную черту общая и нижняя облачность в баллах и высота нижней границы облаков в метрах; квадратными скобками обозначены формы облаков: Ci - перистые, Cs - перисто-слоистые, Cc - перисто-кучевые, Ac - высококучевые, As - высокослоистые, Sc - слоисто-кучевые, Ns - слоисто-дождевые, Cu - кучевые, Cb - кучево-дождевые. Подробнее классификацию облаков см. в Атласе облаков (PDF).
T - Температура воздуха - температура, измеренная на высоте 2 м над землей.
Td - Температура точки росы - температура, при понижении до которой содержащийся в воздухе водяной пар достигнет насыщения.
f - Относительная влажность воздуха - влажноcть воздуха, измеренная на высоте 2 м над землей.
Te - Эффективная температура - температура, которую ощущает одетый по сезону человек в тени. Характеристика душности погоды. При расчете учитывается влияние влажности воздуха и скорости ветра на теплоощущения человека.
Tes - Эффективная температура на солнце - температура, которую ощущает человек, с поправкой на солнечный нагрев. Характеристика знойности погоды. Зависит от высоты солнца над горизонтом, облачности и скорости ветра. Ночью, в пасмурную погоду, а также при ветре 12 м/с и более поправка равна нулю.
P - Атмосферное давление - приведенное к уровню моря атмосферное давление.
Po - Атмосферное давление - измеренное на уровне метеостанции атмосферное давление.
Tmin - Минимальная температура - минимум температуры воздуха на высоте 2 м над землей.
Tmax - Максимальная температура - максимум температуры воздуха на высоте 2 м над землей.
R - Количество осадков - Количество выпавших осадков за период времени, мм. При наведении курсора мыши на число - период времени, за который выпало указанное количество осадков.
R24 - Количество осадков - Количество выпавших осадков за 24 часа, мм.
S - Снежный покров - Высота снежного покрова, см. При наведении курсора мыши на число - состояние снежного покрова и степень покрытия местности в баллах.